Regional Weather Roundup
Issued by NWS

Home | Current Version | Previous Version | Graphics & Text | Print | Product List | Glossary Off
Versions: 1 2 3 4 5 6 7 8 9 10 11 12 13 14 15 16 17 18 19 20 21 22 23 24 25 26 27 28 29 30 31 32 33 34 35 36 37 38 39 40 41 42 43 44 45 46 47 48 49 50

000
ASUS43 KLSX 051507
RWRMO

WEATHER SUMMARY FOR MISSOURI
NATIONAL WEATHER SERVICE SPRINGFIELD MO
900 AM CST THU MAR 05 2015

NOTE: "FAIR" INDICATES FEW OR NO CLOUDS BELOW 12,000 FEET WITH NO
       SIGNIFICANT WEATHER AND/OR OBSTRUCTIONS TO VISIBILITY.
       CURRENT SKY AND/OR WEATHER CONDITIONS ARE NOT AVAILABLE FOR
       CHILLICOTHE AND FARMINGTON.

MOZ001>031-035>038-043-044-053-054-051600-
...NORTHERN AND WESTERN MISSOURI...

CITY           SKY/WX    TMP DP  RH WIND       PRES   REMARKS
KANSAS CTY INT SUNNY     14  -1  51 N7        30.58R WCI   4
KANSAS C DTWN  SUNNY     17  -3  41 N7        30.61R WCI   8
LEE`S SUMMIT   SUNNY     16  -4  41 N10       30.58R WCI   4
ST JOSEPH      SUNNY     13  -1  54 N7        30.62R WCI   3
CHILLICOTHE      N/A     13   1  59 VRB7      30.60R WCI   3

$$
MOZ066>068-077>081-088>096-101>105-051600-
...SOUTHWEST MISSOURI...

CITY           SKY/WX    TMP DP  RH WIND       PRES   REMARKS
SPRINGFIELD    SUNNY     20   7  57 N12       30.52R WCI   8
JOPLIN         SUNNY     23  11  60 NE9       30.57R WCI  13

$$
MOZ032>034-039>042-045>050-055>058-069>072-051600-
...CENTRAL MISSOURI...

CITY           SKY/WX    TMP DP  RH WIND       PRES   REMARKS
COLUMBIA       CLOUDY    18   9  68 N9        30.54R WCI   7
JEFFERSON CITY SUNNY     18   8  65 NW10      30.58R WCI   6
ROLLA          SUNNY     19   6  57 NW13      30.49R WCI   6
SEDALIA        SUNNY     16   2  54 NW9       30.57R WCI   4
WARRENSBURG    SUNNY     18   1  49 NW7       30.60R WCI   8
OSAGE BEACH    SUNNY     19   1  45 N9        30.55R WCI   9

$$
MOZ051-052-059>065-051600-
...EAST CENTRAL MISSOURI...

CITY           SKY/WX    TMP DP  RH WIND       PRES   REMARKS
ST LOUIS INTL  MOSUNNY   19   3  49 N12       30.54R WCI   7
SPIRIT OF STL  MOSUNNY   19   2  47 N7        30.54R WCI  10
ST CHARLES     SUNNY     18   4  54 N10       30.55R WCI   6

$$
MOZ072>076-082>087-097>100-106>115-051600-
...SOUTH CENTRAL AND SOUTHEAST MISSOURI...

CITY           SKY/WX    TMP DP  RH WIND       PRES   REMARKS
CAPE GIRARDEAU MOSUNNY   20   9  62 N10       30.49R WCI   9
FARMINGTON     SUNNY     19   7  58 N7        30.49R WCI  10
POPLAR BLUFF   MIX PCPN  23   8  52 N9        30.49R WCI  13
WEST PLAINS    SUNNY     23   7  50 N9        30.48R WCI  13

$$



USA.gov is the U.S. government's official web portal to all federal, state and local government web resources and services.